Aérodrome :
LOGIN :

S'inscrire | Disclaimer

   EN    FR    IT 

 










Légende :    VFR   VFR Marginal   IFR   IFR Intensif   IFR Très Intensif
Visi : 
Plafond : 
>= 8 km
>= 3000ft
5 à 8 km
1000 à 3000 ft
1500m à 5 km
500 à 1000 ft
800 à 1500m
200 à 500 ft
< 800m
< 200 ft
Symboles :   Orages  Brouillard  Fortes neiges  Fortes précipitations  Vent > 20 kt
SIGMETs :   Divers  Orages  Givrage  Turbulence  Onde Orograph.  Cendres Volcan.







- Altitude de l'aérodrome : 226 ft
- Code IATA : BEX


EGUB - RAF Benson

DERNIER METAR :
  • 212150Z 02004KT 9999 FEW035 01/00 Q1026 BLU TEMPO 6000 BR WHT

METARs EXPIRÉS :
  • 212050Z 02004KT 7000 BR FEW035 02/02 Q1026 WHT TEMPO 4500 GRN
  • 212023Z 03003KT 4500 HZ FEW018 02/02 Q1026 GRN TEMPO 6000 SCT020 WHT
  • 211950Z 01003KT 6000 HZ BKN045 04/03 Q1026 WHT TEMPO 4000 GRN

TAF AMD TAF EGUB
Valide du 21 à 21h jusqu'au 22 à 00h UTC


212156Z 2121/2124 03004KT 9999 FEW035
PROB30 2122/2124 6000 BR
ATIS : +44 1491-837766 (x7524)
Pas de NOTAMs connus pour ce terrain.



MET'MAP, la Météo Aéronautique d'un coup d'oeil ! - Copyright ORBIFLY Décembre 2007 - Disclaimer

ORBIFLY MET'MAP TEAM :

Programmation & Développement : Alexandra Zaïnal
Conception & Développement : Baudouin d'Aumeries
Co-Programmation & Développement : Marc-Olivier Méhu
Soutien technique & logistique : Manuel Goepfert

Contact : metmap@orbifly.com




SOURCES & CREDITS :

   NOAA